FW8756 Weather Reports


Display with metric or nautical units.
time (UTC)temp
F
wind
direction
speed
MPH
gust
MPH
rain 1hr
in
rain 24hr
in
rain mn
in
humidity
%
barometer
mb
20260509021902 74 140 0.0 0.0 0.00 0.00 0.00 88 1008.4
20260509021359 74 96 1.0 1.0 0.00 0.00 0.00 88 1008.4
20260509020857 74 148 0.0 0.0 0.00 0.00 0.00 88 1008.5
20260509020355 74 148 1.0 2.0 0.00 0.00 0.00 88 1008.5
20260509015852 74 122 0.0 1.0 0.00 0.00 0.00 88 1008.4
20260509015350 74 113 0.0 0.0 0.00 0.00 0.00 88 1008.5
20260509014846 74 105 0.0 0.0 0.00 0.00 0.00 87 1008.2
20260509014343 74 143 0.0 0.0 0.00 0.00 0.00 87 1008.3
20260509013840 74 94 1.0 2.0 0.00 0.00 0.00 87 1008.5
20260509013336 74 158 0.0 0.0 0.00 0.00 0.00 87 1008.1
20260509012832 74 173 0.0 0.0 0.00 0.00 0.00 87 1008.0
20260509012329 74 161 0.0 0.0 0.00 0.00 0.00 87 1008.1
20260509011827 74 149 0.0 1.0 0.00 0.00 0.00 87 1008.1
20260509011324 74 149 0.0 1.0 0.00 0.00 0.00 86 1008.1
20260509010821 74 141 0.0 0.0 0.00 0.00 0.00 86 1007.7
20260509010318 75 148 0.0 0.0 0.00 0.00 0.00 86 1008.0
20260509005815 75 69 1.0 3.0 0.00 0.00 0.00 86 1007.9
20260509005313 75 146 0.0 0.0 0.00 0.00 0.00 86 1008.0
20260509004808 75 117 0.0 0.0 0.00 0.00 0.00 85 1007.9
20260509004304 75 76 4.0 5.0 0.00 0.00 0.00 85 1007.9
20260509003803 75 100 3.0 5.0 0.00 0.00 0.00 85 1008.1
20260509003300 75 155 0.0 0.0 0.00 0.00 0.00 85 1008.1
20260509002757 75 128 0.0 0.0 0.00 0.00 0.00 85 1008.2
20260509002254 75 119 0.0 0.0 0.00 0.00 0.00 85 1008.2
20260509001752 75 116 1.0 2.0 0.00 0.00 0.00 84 1008.2
20260509001247 75 154 0.0 0.0 0.00 0.00 0.00 84 1008.3
20260509000746 75 150 0.0 0.0 0.00 0.00 0.00 84 1008.0
20260509000242 76 122 0.0 0.0 0.00 0.00 0.00 84 1007.9
20260508235739 76 85 0.0 0.0 0.00 0.00 0.00 83 1008.2
20260508235236 76 113 0.0 0.0 0.00 0.00 0.00 83 1008.5
20260508234733 76 151 0.0 0.0 0.00 0.00 0.00 82 1008.4
20260508234229 76 135 2.0 5.0 0.00 0.00 0.00 82 1008.3
20260508233724 77 92 0.0 0.0 0.00 0.00 0.00 81 1008.2
20260508233221 77 153 0.0 1.0 0.00 0.00 0.00 81 1008.4
20260508232718 77 148 0.0 0.0 0.00 0.00 0.00 80 1008.3
20260508232215 77 175 0.0 1.0 0.00 0.00 0.00 80 1008.2
20260508231713 77 143 0.0 0.0 0.00 0.00 0.00 79 1008.2
20260508231209 77 157 0.0 0.0 0.00 0.00 0.00 79 1008.1
20260508230706 77 119 0.0 0.0 0.00 0.00 0.00 79 1008.2
20260508230202 77 108 0.0 0.0 0.00 0.00 0.00 80 1008.4
20260508225700 77 101 0.0 0.0 0.00 0.00 0.00 81 1008.2
20260508225156 77 83 0.0 0.0 0.00 0.00 0.00 81 1008.2
20260508224654 77 98 0.0 0.0 0.00 0.00 0.00 82 1008.2
20260508224151 77 69 3.0 3.0 0.00 0.00 0.00 82 1008.2
20260508223649 77 128 0.0 0.0 0.00 0.00 0.00 82 1008.1
20260508223146 78 149 0.0 0.0 0.00 0.00 0.00 82 1007.9
20260508222644 78 116 0.0 0.0 0.00 0.00 0.00 82 1008.2
20260508222141 77 143 0.0 0.0 0.00 0.00 0.00 82 1008.2
20260508221637 77 106 4.0 5.0 0.00 0.00 0.00 82 1008.2
20260508221132 78 183 0.0 0.0 0.00 0.00 0.00 82 1008.3
20260508220629 78 127 1.0 3.0 0.00 0.00 0.00 81 1008.4
20260508220126 78 91 1.0 2.0 0.00 0.00 0.00 81 1008.3
20260508215622 78 69 1.0 1.0 0.00 0.00 0.00 81 1008.3
20260508215119 78 111 0.0 0.0 0.00 0.00 0.00 81 1008.4
20260508214616 78 141 0.0 0.0 0.00 0.00 0.00 81 1008.2
20260508214113 78 66 0.0 2.0 0.00 0.00 0.00 81 1008.2
20260508213610 78 171 0.0 0.0 0.00 0.00 0.00 81 1008.5
20260508213106 78 155 0.0 0.0 0.00 0.00 0.00 81 1008.5
20260508212603 79 150 0.0 0.0 0.00 0.00 0.00 80 1008.5
20260508212059 79 153 0.0 0.0 0.00 0.00 0.00 80 1008.6
20260508211554 79 155 0.0 0.0 0.00 0.00 0.00 80 1008.4
20260508211051 80 100 1.0 2.0 0.00 0.00 0.00 79 1008.4
20260508210548 80 140 0.0 0.0 0.00 0.00 0.00 79 1008.3
20260508210045 80 108 0.0 0.0 0.00 0.00 0.00 78 1008.7
20260508205542 80 155 0.0 0.0 0.00 0.00 0.00 79 1008.5
20260508205039 80 156 0.0 0.0 0.00 0.00 0.00 79 1008.8
20260508204535 80 156 0.0 0.0 0.00 0.00 0.00 79 1008.6
20260508204031 79 154 0.0 0.0 0.00 0.00 0.00 80 1008.8
20260508203527 78 172 0.0 1.0 0.00 0.00 0.00 79 1008.7
20260508203024 79 171 0.0 0.0 0.00 0.00 0.00 79 1008.9
20260508202520 80 146 0.0 0.0 0.00 0.00 0.00 78 1009.1
20260508202017 82 182 1.0 1.0 0.00 0.00 0.00 76 1008.7
20260508201514 82 152 0.0 0.0 0.00 0.00 0.00 76 1008.9
20260508201011 81 140 0.0 0.0 0.00 0.00 0.00 76 1009.3
20260508200508 82 166 0.0 0.0 0.00 0.00 0.00 75 1009.1
20260508200003 81 151 0.0 0.0 0.00 0.00 0.00 76 1009.2
20260508195500 80 152 0.0 0.0 0.00 0.00 0.00 77 1009.2
20260508194956 80 132 0.0 0.0 0.00 0.00 0.00 77 1009.2
20260508194454 80 255 3.0 3.0 0.00 0.00 0.00 77 1009.4
20260508193950 79 153 0.0 0.0 0.00 0.00 0.00 78 1009.4
20260508193447 79 163 0.0 0.0 0.00 0.00 0.00 77 1009.2
20260508192944 79 213 2.0 2.0 0.00 0.00 0.00 76 1009.6
20260508192440 80 207 1.0 1.0 0.00 0.00 0.00 76 1009.8
20260508191937 79 221 3.0 3.0 0.00 0.00 0.00 77 1009.9
20260508191435 82 277 5.0 6.0 0.00 0.00 0.00 74 1009.9
20260508190931 81 130 0.0 0.0 0.00 0.00 0.00 76 1009.7
20260508190429 80 155 0.0 0.0 0.00 0.00 0.00 77 1010.0
20260508185925 79 156 0.0 0.0 0.00 0.00 0.00 78 1009.7
20260508185423 78 157 0.0 0.0 0.00 0.00 0.00 78 1009.7
20260508184920 78 166 0.0 1.0 0.00 0.00 0.00 79 1009.6
20260508184417 78 222 2.0 2.0 0.00 0.00 0.00 78 1010.1
20260508183913 78 158 3.0 3.0 0.00 0.00 0.00 78 1010.2
20260508183410 79 252 3.0 5.0 0.00 0.00 0.00 77 1010.1
20260508182905 80 285 2.0 2.0 0.00 0.00 0.00 76 1010.2
20260508182403 79 152 0.0 0.0 0.00 0.00 0.00 77 1010.1
20260508181858 79 96 1.0 2.0 0.00 0.00 0.00 78 1010.4
20260508181355 79 277 4.0 5.0 0.00 0.00 0.00 77 1010.3
20260508180852 77 137 0.0 0.0 0.00 0.00 0.00 79 1010.3
20260508180349 77 166 1.0 2.0 0.00 0.00 0.00 80 1010.5
20260508175845 76 183 1.0 2.0 0.00 0.00 0.00 79 1010.7
20260508175342 77 154 1.0 2.0 0.00 0.00 0.00 80 1010.5
20260508174840 77 187 0.0 1.0 0.00 0.00 0.00 80 1010.7
20260508174337 77 151 0.0 0.0 0.00 0.00 0.00 80 1010.7
20260508173833 77 205 3.0 3.0 0.00 0.00 0.00 80 1010.6
20260508173331 76 158 0.0 0.0 0.00 0.00 0.00 80 1010.7
20260508172826 76 143 0.0 0.0 0.00 0.00 0.00 81 1010.8
20260508172324 76 143 0.0 0.0 0.00 0.00 0.00 81 1010.9
20260508171820 76 156 0.0 0.0 0.00 0.00 0.00 82 1011.0
20260508171316 75 153 0.0 0.0 0.00 0.00 0.00 81 1010.8
20260508170813 76 133 0.0 0.0 0.00 0.00 0.00 80 1010.7
20260508170312 77 132 0.0 1.0 0.00 0.00 0.00 79 1010.8
20260508165808 76 144 1.0 1.0 0.00 0.00 0.00 80 1011.1
20260508165307 75 20 0.0 2.0 0.00 0.00 0.00 81 1011.0
20260508164801 75 160 0.0 0.0 0.00 0.00 0.00 82 1011.2
20260508164258 74 157 0.0 0.0 0.00 0.00 0.00 83 1011.2
20260508163756 74 133 0.0 0.0 0.00 0.00 0.00 81 1010.9
20260508163254 74 165 1.0 2.0 0.00 0.00 0.00 82 1011.4
20260508162749 74 69 1.0 1.0 0.00 0.00 0.00 82 1011.2
20260508162246 73 144 0.0 1.0 0.00 0.00 0.00 82 1011.4
20260508161743 72 138 1.0 1.0 0.00 0.00 0.00 83 1011.5
20260508161240 73 146 0.0 0.0 0.00 0.00 0.00 82 1011.3
20260508160738 72 159 0.0 0.0 0.00 0.00 0.00 82 1011.4
20260508160237 73 150 0.0 0.0 0.00 0.00 0.00 82 1011.5
20260508155732 73 157 0.0 0.0 0.00 0.00 0.00 84 1011.6
20260508155230 72 90 1.0 1.0 0.00 0.00 0.00 85 1011.4
20260508154726 71 156 1.0 1.0 0.00 0.00 0.00 86 1011.9
20260508154223 69 79 0.0 1.0 0.00 0.00 0.00 88 1012.1
20260508153720 69 109 1.0 2.0 0.00 0.00 0.00 88 1012.1
20260508153217 68 105 0.0 0.0 0.00 0.00 0.00 89 1012.3
20260508152714 68 111 0.0 0.0 0.00 0.00 0.00 89 1012.3
20260508152209 67 134 0.0 0.0 0.00 0.00 0.00 90 1012.2
20260508151706 67 139 0.0 0.0 0.00 0.00 0.00 91 1012.7
20260508151203 67 133 0.0 0.0 0.00 0.00 0.00 91 1012.5
20260508150700 66 145 0.0 0.0 0.00 0.00 0.00 91 1012.5
20260508150156 66 101 3.0 3.0 0.00 0.00 0.00 91 1012.8
20260508145652 66 60 0.0 1.0 0.00 0.00 0.00 92 1012.9
20260508145148 66 127 1.0 2.0 0.00 0.00 0.00 92 1012.8
20260508144646 66 123 0.0 0.0 0.00 0.00 0.00 92 1012.9
20260508144144 65 115 1.0 2.0 0.00 0.00 0.00 92 1013.1
20260508143641 65 134 0.0 1.0 0.00 0.00 0.00 92 1013.0
20260508143138 65 66 0.0 0.0 0.00 0.00 0.00 92 1013.2
20260508142634 65 31 1.0 1.0 0.00 0.00 0.00 93 1012.9
20260508142131 65 175 1.0 2.0 0.00 0.00 0.00 92 1013.0
20260508141627 65 200 0.0 1.0 0.00 0.00 0.00 93 1012.8
20260508141125 64 79 0.0 1.0 0.00 0.00 0.00 93 1012.8
20260508140622 64 141 0.0 0.0 0.00 0.00 0.00 93 1012.9
20260508140119 65 52 1.0 2.0 0.00 0.00 0.00 93 1013.1
20260508135614 65 143 0.0 0.0 0.00 0.00 0.00 93 1013.3
20260508135111 64 22 0.0 1.0 0.00 0.00 0.00 93 1013.2
20260508134608 64 171 0.0 0.0 0.00 0.00 0.00 93 1013.4
20260508134105 64 43 1.0 1.0 0.00 0.00 0.00 93 1013.2
20260508133601 64 145 0.0 1.0 0.00 0.00 0.00 93 1013.3
20260508133059 64 176 0.0 1.0 0.00 0.00 0.00 93 1013.0
20260508132557 64 34 0.0 0.0 0.00 0.00 0.00 93 1012.8
20260508132053 64 158 0.0 0.0 0.00 0.00 0.00 93 1012.9
20260508131549 65 150 0.0 0.0 0.00 0.00 0.00 93 1012.7
20260508131046 65 172 0.0 0.0 0.00 0.00 0.00 93 1012.5
20260508130542 64 150 0.0 0.0 0.00 0.00 0.00 93 1012.8
20260508130039 64 107 0.0 0.0 0.00 0.00 0.00 92 1012.7
20260508125534 64 155 0.0 0.0 0.00 0.00 0.00 92 1012.8
20260508125032 64 166 0.0 0.0 0.00 0.00 0.00 92 1012.8
20260508124530 64 141 0.0 0.0 0.00 0.00 0.00 92 1012.7
20260508124027 64 157 0.0 0.0 0.00 0.00 0.00 92 1012.5
20260508123526 64 165 0.0 0.0 0.00 0.00 0.00 92 1011.9
20260508123022 64 125 0.0 0.0 0.00 0.00 0.00 92 1011.8
20260508122519 64 156 0.0 0.0 0.00 0.00 0.00 92 1012.5
20260508122016 65 142 0.0 0.0 0.00 0.00 0.00 91 1012.5
20260508121514 64 154 0.0 0.0 0.00 0.00 0.00 91 1012.7
20260508121012 64 134 0.0 0.0 0.00 0.00 0.00 91 1012.6
20260508120509 64 157 0.0 0.0 0.00 0.00 0.00 91 1012.5
20260508120007 64 148 0.0 0.0 0.00 0.00 0.00 91 1012.2
20260508115504 64 166 0.0 0.0 0.00 0.00 0.00 90 1012.2
20260508115001 64 165 0.0 0.0 0.00 0.00 0.00 90 1012.1
20260508114458 65 160 0.0 0.0 0.00 0.00 0.00 89 1012.3
20260508113954 65 129 0.0 1.0 0.00 0.00 0.00 88 1011.5
20260508113452 66 138 0.0 1.0 0.00 0.00 0.00 87 1011.6
20260508112949 66 155 2.0 2.0 0.00 0.00 0.00 85 1013.1
20260508112445 67 229 0.0 0.0 0.00 0.00 0.00 83 1012.8
20260508111942 67 149 0.0 0.0 0.00 0.00 0.00 82 1012.0
20260508111439 67 137 1.0 1.0 0.00 0.00 0.00 82 1011.7
20260508110936 67 6 0.0 0.0 0.00 0.00 0.00 82 1011.6
20260508110434 66 128 0.0 0.0 0.00 0.00 0.00 82 1011.7
20260508105933 66 130 1.0 1.0 0.00 0.00 0.00 82 1011.7
20260508105430 66 146 0.0 1.0 0.00 0.00 0.00 82 1011.9
20260508104927 67 110 0.0 0.0 0.00 0.00 0.00 82 1011.7
20260508104425 67 113 0.0 0.0 0.00 0.00 0.00 82 1011.9
20260508103921 66 84 0.0 0.0 0.00 0.00 0.00 82 1012.6
20260508103419 66 155 0.0 0.0 0.00 0.00 0.00 82 1012.7
20260508102915 66 13 1.0 1.0 0.00 0.00 0.00 83 1012.7
20260508102414 67 154 0.0 0.0 0.00 0.00 0.00 83 1012.6
20260508101911 66 141 0.0 0.0 0.00 0.00 0.00 83 1012.6
20260508101408 67 106 0.0 0.0 0.00 0.00 0.00 83 1012.6
20260508100905 67 160 0.0 0.0 0.00 0.00 0.00 82 1012.9
20260508100404 67 157 0.0 1.0 0.00 0.00 0.00 82 1012.6
20260508095859 67 151 0.0 0.0 0.00 0.00 0.00 82 1012.9
20260508095358 67 143 0.0 0.0 0.00 0.00 0.00 82 1012.7
20260508094854 67 111 0.0 0.0 0.00 0.00 0.00 82 1012.1
20260508094351 67 127 2.0 2.0 0.00 0.00 0.00 82 1012.1
20260508093848 66 149 0.0 0.0 0.00 0.00 0.00 82 1012.3
20260508093345 66 298 3.0 3.0 0.00 0.00 0.00 82 1012.7
20260508092843 66 161 0.0 0.0 0.00 0.00 0.00 82 1012.5
20260508092341 66 138 0.0 0.0 0.00 0.00 0.00 82 1012.0
20260508091839 66 159 0.0 0.0 0.00 0.00 0.00 83 1011.9
20260508091335 66 82 2.0 3.0 0.00 0.00 0.00 82 1011.6
20260508090833 66 83 1.0 1.0 0.00 0.00 0.00 82 1011.7
20260508090331 66 156 0.0 0.0 0.00 0.00 0.00 83 1012.1
20260508085826 66 124 1.0 1.0 0.00 0.00 0.00 83 1012.1
20260508085323 66 137 0.0 0.0 0.00 0.00 0.00 83 1012.1
20260508084820 66 157 0.0 0.0 0.00 0.00 0.00 83 1012.3
20260508084316 66 89 0.0 0.0 0.00 0.00 0.00 82 1012.2
20260508083814 66 166 1.0 3.0 0.00 0.00 0.00 82 1012.3
20260508083312 67 125 0.0 0.0 0.00 0.00 0.00 82 1012.2
20260508082811 67 149 0.0 0.0 0.00 0.00 0.00 81 1012.5
20260508082309 67 341 1.0 3.0 0.00 0.00 0.00 81 1012.3
20260508081806 67 105 0.0 0.0 0.00 0.00 0.00 81 1012.3
20260508081303 67 83 0.0 0.0 0.00 0.00 0.00 81 1012.0
20260508080800 67 107 0.0 0.0 0.00 0.00 0.00 81 1012.1
20260508080258 67 113 0.0 0.0 0.00 0.00 0.00 81 1012.3
20260508075754 67 162 0.0 0.0 0.00 0.00 0.00 81 1012.8
20260508075251 67 33 0.0 0.0 0.00 0.00 0.00 80 1013.0
20260508074749 67 158 0.0 0.0 0.00 0.00 0.00 80 1013.1
20260508074246 67 82 0.0 0.0 0.00 0.00 0.00 80 1013.0
20260508073743 67 127 0.0 0.0 0.00 0.00 0.00 80 1012.7
20260508073241 67 134 0.0 0.0 0.00 0.00 0.00 80 1012.8
20260508072736 67 150 0.0 0.0 0.00 0.00 0.00 80 1013.0
20260508072233 67 153 0.0 0.0 0.00 0.00 0.00 81 1013.1
20260508071731 67 148 0.0 0.0 0.00 0.00 0.00 81 1012.7
20260508071229 66 39 1.0 2.0 0.00 0.00 0.00 81 1013.1
20260508070726 66 188 0.0 1.0 0.00 0.00 0.00 81 1013.3
20260508070225 66 166 0.0 0.0 0.00 0.00 0.00 81 1012.8
20260508065721 66 121 0.0 0.0 0.00 0.00 0.00 81 1012.8
20260508065220 66 147 0.0 0.0 0.00 0.00 0.00 82 1012.3
20260508064717 66 137 2.0 2.0 0.00 0.00 0.00 82 1012.1
20260508064215 66 83 1.0 1.0 0.00 0.00 0.00 82 1012.6
20260508063712 66 127 0.0 1.0 0.00 0.00 0.00 82 1012.9
20260508063210 66 57 0.0 1.0 0.00 0.00 0.00 82 1012.8
20260508062707 66 357 0.0 0.0 0.00 0.00 0.00 81 1013.4
20260508062204 66 91 1.0 1.0 0.00 0.00 0.00 81 1013.5
20260508061701 66 165 0.0 0.0 0.00 0.00 0.00 81 1013.7
20260508061159 66 285 0.0 0.0 0.00 0.00 0.00 81 1013.7
20260508060655 66 141 0.0 0.0 0.00 0.00 0.00 80 1013.5
20260508060153 67 195 0.0 0.0 0.00 0.00 0.00 79 1013.3
20260508055648 67 150 0.0 0.0 0.00 0.00 0.00 79 1013.1
20260508055145 67 140 0.0 0.0 0.00 0.00 0.00 79 1012.9
20260508054641 67 163 0.0 0.0 0.00 0.00 0.00 79 1012.7
20260508054139 67 161 0.0 0.0 0.00 0.00 0.00 78 1012.9
20260508053636 67 137 0.0 0.0 0.00 0.00 0.00 78 1013.2
20260508053133 67 149 0.0 0.0 0.00 0.00 0.00 78 1013.0
20260508052631 68 161 0.0 2.0 0.00 0.00 0.00 77 1012.9
20260508052128 68 173 0.0 0.0 0.00 0.00 0.00 77 1012.8
20260508051624 68 47 0.0 0.0 0.00 0.00 0.00 77 1012.9
20260508051119 68 50 0.0 1.0 0.00 0.00 0.00 77 1013.0
20260508050615 68 127 0.0 0.0 0.00 0.00 0.00 77 1013.1
20260508050114 68 246 0.0 1.0 0.00 0.00 0.00 76 1012.9
20260508045609 68 147 0.0 1.0 0.00 0.00 0.00 76 1012.9
20260508045107 68 144 0.0 0.0 0.00 0.00 0.00 76 1012.7
20260508044604 68 156 0.0 0.0 0.00 0.00 0.00 76 1012.8
20260508044100 68 123 0.0 1.0 0.00 0.00 0.00 76 1012.9
20260508043557 68 145 0.0 1.0 0.00 0.00 0.00 76 1012.8
20260508043054 68 90 0.0 0.0 0.00 0.00 0.00 76 1012.8
20260508042551 68 157 0.0 0.0 0.00 0.00 0.00 76 1013.1
20260508042049 68 156 0.0 0.0 0.00 0.00 0.00 76 1012.8
20260508041544 68 127 1.0 1.0 0.00 0.00 0.00 75 1013.2
20260508041041 68 134 0.0 0.0 0.00 0.00 0.00 75 1013.1
20260508040538 68 100 2.0 2.0 0.00 0.00 0.00 76 1013.5
20260508040036 68 37 2.0 5.0 0.00 0.00 0.00 76 1013.1
20260508035532 68 89 2.0 3.0 0.00 0.00 0.00 76 1012.6
20260508035030 68 151 0.0 0.0 0.00 0.00 0.00 76 1012.3
20260508034527 68 126 0.0 1.0 0.00 0.00 0.00 76 1012.2
20260508034023 68 150 0.0 0.0 0.00 0.00 0.00 76 1012.7
20260508033521 68 167 1.0 1.0 0.00 0.00 0.00 76 1012.9
20260508033019 68 66 1.0 1.0 0.00 0.00 0.00 76 1013.0
20260508032516 68 111 0.0 0.0 0.00 0.00 0.00 76 1013.3
20260508032013 68 115 1.0 2.0 0.00 0.00 0.00 76 1013.2
20260508031510 68 70 0.0 1.0 0.00 0.00 0.00 76 1012.9
20260508031005 68 168 0.0 0.0 0.00 0.00 0.00 76 1013.2
20260508030503 68 169 1.0 1.0 0.00 0.00 0.00 76 1013.0
20260508030001 68 52 1.0 2.0 0.00 0.00 0.00 76 1013.0
20260508025456 68 78 0.0 0.0 0.00 0.00 0.00 76 1013.0
20260508024954 68 153 0.0 1.0 0.00 0.00 0.00 76 1013.1
20260508024449 68 139 0.0 0.0 0.00 0.00 0.00 76 1013.4
20260508023946 68 185 2.0 2.0 0.00 0.00 0.00 75 1013.2
20260508023443 68 187 0.0 0.0 0.00 0.00 0.00 75 1013.1
20260508022941 68 69 0.0 0.0 0.00 0.00 0.00 75 1013.3
20260508022436 68 138 1.0 2.0 0.00 0.00 0.00 75 1013.0
20260508021933 68 286 1.0 1.0 0.00 0.00 0.00 75 1013.3